<?xml version="1.0" encoding="UTF-8" standalone="yes"?>
<gpx version="1.1" creator="MagicMaps Tour Explorer"
     xmlns:xsi="http://www.w3.org/2001/XMLSchema-instance"
     xmlns="http://www.topografix.com/GPX/1/1">
  <trk>
    <name>toter_mann_s</name>
    <trkseg>
      <trkpt lat="47.622386953" lon="12.903820490">
        <ele>1030.4</ele>
      </trkpt>
      <trkpt lat="47.621901892" lon="12.904164316">
        <ele>1036.4</ele>
      </trkpt>
      <trkpt lat="47.621578434" lon="12.904307563">
        <ele>1036.6</ele>
      </trkpt>
      <trkpt lat="47.621147269" lon="12.905023964">
        <ele>1042.7</ele>
      </trkpt>
      <trkpt lat="47.620680146" lon="12.905826280">
        <ele>1044.6</ele>
      </trkpt>
      <trkpt lat="47.620572355" lon="12.906685844">
        <ele>1052.9</ele>
      </trkpt>
      <trkpt lat="47.620572355" lon="12.907488160">
        <ele>1058.3</ele>
      </trkpt>
      <trkpt lat="47.620751979" lon="12.908089897">
        <ele>1066.9</ele>
      </trkpt>
      <trkpt lat="47.620913666" lon="12.908949545">
        <ele>1075.8</ele>
      </trkpt>
      <trkpt lat="47.620967645" lon="12.909637196">
        <ele>1078.1</ele>
      </trkpt>
      <trkpt lat="47.621075436" lon="12.910324931">
        <ele>1083.2</ele>
      </trkpt>
      <trkpt lat="47.621272998" lon="12.910611508">
        <ele>1093.1</ele>
      </trkpt>
      <trkpt lat="47.621219102" lon="12.911127247">
        <ele>1089.5</ele>
      </trkpt>
      <trkpt lat="47.621219102" lon="12.911671652">
        <ele>1089.2</ele>
      </trkpt>
      <trkpt lat="47.621434769" lon="12.912187474">
        <ele>1097.8</ele>
      </trkpt>
      <trkpt lat="47.621740121" lon="12.913018456">
        <ele>1112.7</ele>
      </trkpt>
      <trkpt lat="47.621955788" lon="12.913792105">
        <ele>1122.8</ele>
      </trkpt>
      <trkpt lat="47.622458786" lon="12.914422508">
        <ele>1143.3</ele>
      </trkpt>
      <trkpt lat="47.622782160" lon="12.915167492">
        <ele>1156.5</ele>
      </trkpt>
      <trkpt lat="47.623051722" lon="12.915740563">
        <ele>1173.8</ele>
      </trkpt>
      <trkpt lat="47.622925909" lon="12.916084388">
        <ele>1180.5</ele>
      </trkpt>
      <trkpt lat="47.622584598" lon="12.916342299">
        <ele>1183.4</ele>
      </trkpt>
      <trkpt lat="47.622099454" lon="12.916600211">
        <ele>1183.7</ele>
      </trkpt>
      <trkpt lat="47.621614393" lon="12.916972702">
        <ele>1183.8</ele>
      </trkpt>
      <trkpt lat="47.621380789" lon="12.917603105">
        <ele>1193.3</ele>
      </trkpt>
      <trkpt lat="47.621219102" lon="12.918462669">
        <ele>1207.7</ele>
      </trkpt>
      <trkpt lat="47.620985582" lon="12.919093072">
        <ele>1207.1</ele>
      </trkpt>
      <trkpt lat="47.621829975" lon="12.919580229">
        <ele>1215.2</ele>
      </trkpt>
      <trkpt lat="47.622279162" lon="12.919637477">
        <ele>1220.0</ele>
      </trkpt>
      <trkpt lat="47.622692389" lon="12.919207737">
        <ele>1229.8</ele>
      </trkpt>
      <trkpt lat="47.622656431" lon="12.918777913">
        <ele>1231.6</ele>
      </trkpt>
      <trkpt lat="47.622890035" lon="12.918348089">
        <ele>1235.6</ele>
      </trkpt>
      <trkpt lat="47.623105617" lon="12.918090178">
        <ele>1237.8</ele>
      </trkpt>
      <trkpt lat="47.623285241" lon="12.918376755">
        <ele>1241.4</ele>
      </trkpt>
      <trkpt lat="47.623572741" lon="12.918520002">
        <ele>1245.5</ele>
      </trkpt>
      <trkpt lat="47.623914052" lon="12.918462669">
        <ele>1250.2</ele>
      </trkpt>
      <trkpt lat="47.624129634" lon="12.918061512">
        <ele>1251.3</ele>
      </trkpt>
      <trkpt lat="47.624453092" lon="12.918032845">
        <ele>1255.6</ele>
      </trkpt>
      <trkpt lat="47.624704633" lon="12.918663248">
        <ele>1264.0</ele>
      </trkpt>
      <trkpt lat="47.624866320" lon="12.919150405">
        <ele>1270.4</ele>
      </trkpt>
      <trkpt lat="47.625117861" lon="12.919494230">
        <ele>1277.9</ele>
      </trkpt>
      <trkpt lat="47.625405276" lon="12.919780808">
        <ele>1285.1</ele>
      </trkpt>
      <trkpt lat="47.625692775" lon="12.919952720">
        <ele>1292.5</ele>
      </trkpt>
      <trkpt lat="47.625980191" lon="12.920181965">
        <ele>1300.6</ele>
      </trkpt>
      <trkpt lat="47.626249669" lon="12.920353878">
        <ele>1308.0</ele>
      </trkpt>
      <trkpt lat="47.626573127" lon="12.920984281">
        <ele>1311.2</ele>
      </trkpt>
      <trkpt lat="47.626932459" lon="12.921471354">
        <ele>1308.0</ele>
      </trkpt>
      <trkpt lat="47.627597228" lon="12.921700599">
        <ele>1315.1</ele>
      </trkpt>
      <trkpt lat="47.628100310" lon="12.922159089">
        <ele>1307.3</ele>
      </trkpt>
      <trkpt lat="47.628603391" lon="12.922130423">
        <ele>1319.7</ele>
      </trkpt>
      <trkpt lat="47.629016619" lon="12.922273669">
        <ele>1323.5</ele>
      </trkpt>
      <trkpt lat="47.629555576" lon="12.922331002">
        <ele>1332.3</ele>
      </trkpt>
      <trkpt lat="47.630094532" lon="12.922359668">
        <ele>1343.5</ele>
      </trkpt>
      <trkpt lat="47.630453864" lon="12.922273669">
        <ele>1353.4</ele>
      </trkpt>
      <trkpt lat="47.630202323" lon="12.921586018">
        <ele>1356.5</ele>
      </trkpt>
      <trkpt lat="47.630004762" lon="12.921098862">
        <ele>1366.0</ele>
      </trkpt>
      <trkpt lat="47.629735200" lon="12.920783702">
        <ele>1374.8</ele>
      </trkpt>
      <trkpt lat="47.629447784" lon="12.920697704">
        <ele>1375.5</ele>
      </trkpt>
      <trkpt lat="47.628783016" lon="12.920669038">
        <ele>1370.5</ele>
      </trkpt>
      <trkpt lat="47.628351850" lon="12.920439793">
        <ele>1369.1</ele>
      </trkpt>
      <trkpt lat="47.628815034" lon="12.920688987">
        <ele>1376.7</ele>
        <time>1970-01-01T00:00:00</time>
      </trkpt>
      <trkpt lat="47.629610980" lon="12.920768028">
        <ele>1373.5</ele>
        <time>1970-01-01T00:00:00</time>
      </trkpt>
      <trkpt lat="47.630150020" lon="12.921500020">
        <ele>1361.2</ele>
        <time>1970-01-01T00:00:00</time>
      </trkpt>
      <trkpt lat="47.630657963" lon="12.922656974">
        <ele>1357.1</ele>
        <time>1970-01-01T00:00:00</time>
      </trkpt>
      <trkpt lat="47.630768018" lon="12.924306029">
        <ele>1368.0</ele>
        <time>1970-01-01T00:00:00</time>
      </trkpt>
      <trkpt lat="47.631125003" lon="12.923363987">
        <ele>1366.7</ele>
        <time>1970-01-01T00:00:00</time>
      </trkpt>
      <trkpt lat="47.630653018" lon="12.924480960">
        <ele>1365.2</ele>
        <time>1970-01-01T00:00:00</time>
      </trkpt>
      <trkpt lat="47.630366022" lon="12.925631041">
        <ele>1361.9</ele>
        <time>1970-01-01T00:00:00</time>
      </trkpt>
      <trkpt lat="47.630168041" lon="12.926703002">
        <ele>1353.2</ele>
        <time>1970-01-01T00:00:00</time>
      </trkpt>
      <trkpt lat="47.629664959" lon="12.927069040">
        <ele>1331.8</ele>
        <time>1970-01-01T00:00:00</time>
      </trkpt>
      <trkpt lat="47.629233962" lon="12.927096030">
        <ele>1313.6</ele>
        <time>1970-01-01T00:00:00</time>
      </trkpt>
      <trkpt lat="47.628425024" lon="12.927461984">
        <ele>1274.1</ele>
        <time>1970-01-01T00:00:00</time>
      </trkpt>
      <trkpt lat="47.628138028" lon="12.927540019">
        <ele>1262.2</ele>
        <time>1970-01-01T00:00:00</time>
      </trkpt>
      <trkpt lat="47.627724968" lon="12.927514035">
        <ele>1247.5</ele>
        <time>1970-01-01T00:00:00</time>
      </trkpt>
      <trkpt lat="47.627707031" lon="12.927540019">
        <ele>1247.0</ele>
        <time>1970-01-01T00:00:00</time>
      </trkpt>
      <trkpt lat="47.626755014" lon="12.928010998">
        <ele>1210.4</ele>
        <time>1970-01-01T00:00:00</time>
      </trkpt>
      <trkpt lat="47.626755014" lon="12.928036982">
        <ele>1210.5</ele>
        <time>1970-01-01T00:00:00</time>
      </trkpt>
      <trkpt lat="47.625945993" lon="12.928560013">
        <ele>1171.2</ele>
        <time>1970-01-01T00:00:00</time>
      </trkpt>
      <trkpt lat="47.625263035" lon="12.928978018">
        <ele>1139.8</ele>
        <time>1970-01-01T00:00:00</time>
      </trkpt>
      <trkpt lat="47.624939997" lon="12.929135012">
        <ele>1124.7</ele>
        <time>1970-01-01T00:00:00</time>
      </trkpt>
      <trkpt lat="47.624096023" lon="12.929684026">
        <ele>1086.0</ele>
        <time>1970-01-01T00:00:00</time>
      </trkpt>
      <trkpt lat="47.623377023" lon="12.930337982">
        <ele>1062.3</ele>
        <time>1970-01-01T00:00:00</time>
      </trkpt>
      <trkpt lat="47.623035964" lon="12.930520959">
        <ele>1053.6</ele>
        <time>1970-01-01T00:00:00</time>
      </trkpt>
      <trkpt lat="47.623053985" lon="12.929867003">
        <ele>1050.6</ele>
        <time>1970-01-01T00:00:00</time>
      </trkpt>
      <trkpt lat="47.622478986" lon="12.929684026">
        <ele>1033.2</ele>
        <time>1970-01-01T00:00:00</time>
      </trkpt>
      <trkpt lat="47.621543985" lon="12.930390034">
        <ele>1009.9</ele>
        <time>1970-01-01T00:00:00</time>
      </trkpt>
      <trkpt lat="47.621543985" lon="12.930416018">
        <ele>1010.0</ele>
        <time>1970-01-01T00:00:00</time>
      </trkpt>
      <trkpt lat="47.620663969" lon="12.932089968">
        <ele>1001.6</ele>
        <time>1970-01-01T00:00:00</time>
      </trkpt>
      <trkpt lat="47.620413015" lon="12.932979036">
        <ele>1008.4</ele>
        <time>1970-01-01T00:00:00</time>
      </trkpt>
      <trkpt lat="47.620628010" lon="12.934182007">
        <ele>1006.3</ele>
        <time>1970-01-01T00:00:00</time>
      </trkpt>
      <trkpt lat="47.620502030" lon="12.935357988">
        <ele>998.3</ele>
        <time>1970-01-01T00:00:00</time>
      </trkpt>
      <trkpt lat="47.620106991" lon="12.936351998">
        <ele>981.6</ele>
        <time>1970-01-01T00:00:00</time>
      </trkpt>
      <trkpt lat="47.619459992" lon="12.937058005">
        <ele>954.4</ele>
        <time>1970-01-01T00:00:00</time>
      </trkpt>
      <trkpt lat="47.619082974" lon="12.937371992">
        <ele>935.8</ele>
        <time>1970-01-01T00:00:00</time>
      </trkpt>
      <trkpt lat="47.618903015" lon="12.937006038">
        <ele>942.6</ele>
        <time>1970-01-01T00:00:00</time>
      </trkpt>
      <trkpt lat="47.618148979" lon="12.936403966">
        <ele>941.0</ele>
        <time>1970-01-01T00:00:00</time>
      </trkpt>
      <trkpt lat="47.617303999" lon="12.935175011">
        <ele>949.1</ele>
        <time>1970-01-01T00:00:00</time>
      </trkpt>
      <trkpt lat="47.616370004" lon="12.933945972">
        <ele>941.2</ele>
        <time>1970-01-01T00:00:00</time>
      </trkpt>
      <trkpt lat="47.616101028" lon="12.933136029">
        <ele>940.5</ele>
        <time>1970-01-01T00:00:00</time>
      </trkpt>
      <trkpt lat="47.616064986" lon="12.932456005">
        <ele>936.6</ele>
        <time>1970-01-01T00:00:00</time>
      </trkpt>
      <trkpt lat="47.616514005" lon="12.932168003">
        <ele>938.8</ele>
        <time>1970-01-01T00:00:00</time>
      </trkpt>
      <trkpt lat="47.617466021" lon="12.931828033">
        <ele>945.8</ele>
        <time>1970-01-01T00:00:00</time>
      </trkpt>
      <trkpt lat="47.618400017" lon="12.931200983">
        <ele>949.9</ele>
        <time>1970-01-01T00:00:00</time>
      </trkpt>
      <trkpt lat="47.619172996" lon="12.930651968">
        <ele>955.7</ele>
        <time>1970-01-01T00:00:00</time>
      </trkpt>
      <trkpt lat="47.618651977" lon="12.929919977">
        <ele>949.1</ele>
        <time>1970-01-01T00:00:00</time>
      </trkpt>
      <trkpt lat="47.618076978" lon="12.929998012">
        <ele>936.9</ele>
        <time>1970-01-01T00:00:00</time>
      </trkpt>
      <trkpt lat="47.617806997" lon="12.929762984">
        <ele>936.0</ele>
        <time>1970-01-01T00:00:00</time>
      </trkpt>
      <trkpt lat="47.617429979" lon="12.929762984">
        <ele>926.8</ele>
        <time>1970-01-01T00:00:00</time>
      </trkpt>
      <trkpt lat="47.617179025" lon="12.928848015">
        <ele>940.1</ele>
        <time>1970-01-01T00:00:00</time>
      </trkpt>
      <trkpt lat="47.617340041" lon="12.928324984">
        <ele>950.6</ele>
        <time>1970-01-01T00:00:00</time>
      </trkpt>
      <trkpt lat="47.617213978" lon="12.927854005">
        <ele>959.3</ele>
        <time>1970-01-01T00:00:00</time>
      </trkpt>
      <trkpt lat="47.616692958" lon="12.927905973">
        <ele>959.7</ele>
        <time>1970-01-01T00:00:00</time>
      </trkpt>
      <trkpt lat="47.616351983" lon="12.928717006">
        <ele>933.2</ele>
        <time>1970-01-01T00:00:00</time>
      </trkpt>
      <trkpt lat="47.615561988" lon="12.928795042">
        <ele>931.7</ele>
        <time>1970-01-01T00:00:00</time>
      </trkpt>
      <trkpt lat="47.614951031" lon="12.928559007">
        <ele>933.6</ele>
        <time>1970-01-01T00:00:00</time>
      </trkpt>
      <trkpt lat="47.614483992" lon="12.928246027">
        <ele>931.2</ele>
        <time>1970-01-01T00:00:00</time>
      </trkpt>
      <trkpt lat="47.613999015" lon="12.927984009">
        <ele>924.9</ele>
        <time>1970-01-01T00:00:00</time>
      </trkpt>
      <trkpt lat="47.613711013" lon="12.927356958">
        <ele>936.0</ele>
        <time>1970-01-01T00:00:00</time>
      </trkpt>
      <trkpt lat="47.613189993" lon="12.926808028">
        <ele>932.3</ele>
        <time>1970-01-01T00:00:00</time>
      </trkpt>
      <trkpt lat="47.612525979" lon="12.926075030">
        <ele>932.1</ele>
        <time>1970-01-01T00:00:00</time>
      </trkpt>
      <trkpt lat="47.611753000" lon="12.925551999">
        <ele>928.6</ele>
        <time>1970-01-01T00:00:00</time>
      </trkpt>
      <trkpt lat="47.610943979" lon="12.925133994">
        <ele>925.1</ele>
        <time>1970-01-01T00:00:00</time>
      </trkpt>
      <trkpt lat="47.610603003" lon="12.924637031">
        <ele>930.2</ele>
        <time>1970-01-01T00:00:00</time>
      </trkpt>
      <trkpt lat="47.610118026" lon="12.924009981">
        <ele>929.9</ele>
        <time>1970-01-01T00:00:00</time>
      </trkpt>
      <trkpt lat="47.610063963" lon="12.923617037">
        <ele>937.7</ele>
        <time>1970-01-01T00:00:00</time>
      </trkpt>
      <trkpt lat="47.609184030" lon="12.922911029">
        <ele>933.6</ele>
        <time>1970-01-01T00:00:00</time>
      </trkpt>
      <trkpt lat="47.608698970" lon="12.922336031">
        <ele>934.1</ele>
        <time>1970-01-01T00:00:00</time>
      </trkpt>
      <trkpt lat="47.608303009" lon="12.922152970">
        <ele>917.8</ele>
        <time>1970-01-01T00:00:00</time>
      </trkpt>
      <trkpt lat="47.608232014" lon="12.921681991">
        <ele>912.8</ele>
        <time>1970-01-01T00:00:00</time>
      </trkpt>
      <trkpt lat="47.608788991" lon="12.920086998">
        <ele>915.9</ele>
        <time>1970-01-01T00:00:00</time>
      </trkpt>
      <trkpt lat="47.609471027" lon="12.919119978">
        <ele>925.6</ele>
        <time>1970-01-01T00:00:00</time>
      </trkpt>
      <trkpt lat="47.610100005" lon="12.918544980">
        <ele>936.1</ele>
        <time>1970-01-01T00:00:00</time>
      </trkpt>
      <trkpt lat="47.610172005" lon="12.916949987">
        <ele>916.7</ele>
        <time>1970-01-01T00:00:00</time>
      </trkpt>
      <trkpt lat="47.610172005" lon="12.916347999">
        <ele>911.5</ele>
        <time>1970-01-01T00:00:00</time>
      </trkpt>
      <trkpt lat="47.610638961" lon="12.914753007">
        <ele>912.1</ele>
        <time>1970-01-01T00:00:00</time>
      </trkpt>
      <trkpt lat="47.611573040" lon="12.913758997">
        <ele>919.1</ele>
        <time>1970-01-01T00:00:00</time>
      </trkpt>
      <trkpt lat="47.612309977" lon="12.913001021">
        <ele>918.0</ele>
        <time>1970-01-01T00:00:00</time>
      </trkpt>
      <trkpt lat="47.612981033" lon="12.913304027">
        <ele>918.2</ele>
        <time>1970-01-01T00:00:00</time>
      </trkpt>
      <trkpt lat="47.613000982" lon="12.912256038">
        <ele>915.1</ele>
        <time>1970-01-01T00:00:00</time>
      </trkpt>
      <trkpt lat="47.613568017" lon="12.911222968">
        <ele>922.1</ele>
        <time>1970-01-01T00:00:00</time>
      </trkpt>
      <trkpt lat="47.613999015" lon="12.910202974">
        <ele>923.6</ele>
        <time>1970-01-01T00:00:00</time>
      </trkpt>
      <trkpt lat="47.614249969" lon="12.908476973">
        <ele>917.1</ele>
        <time>1970-01-01T00:00:00</time>
      </trkpt>
      <trkpt lat="47.614160031" lon="12.906647036">
        <ele>913.8</ele>
        <time>1970-01-01T00:00:00</time>
      </trkpt>
      <trkpt lat="47.614034973" lon="12.905757967">
        <ele>902.5</ele>
        <time>1970-01-01T00:00:00</time>
      </trkpt>
      <trkpt lat="47.614249969" lon="12.904737974">
        <ele>903.4</ele>
        <time>1970-01-01T00:00:00</time>
      </trkpt>
      <trkpt lat="47.614824967" lon="12.904319968">
        <ele>918.2</ele>
        <time>1970-01-01T00:00:00</time>
      </trkpt>
      <trkpt lat="47.615687968" lon="12.904580981">
        <ele>935.3</ele>
        <time>1970-01-01T00:00:00</time>
      </trkpt>
      <trkpt lat="47.616370004" lon="12.905129995">
        <ele>940.5</ele>
        <time>1970-01-01T00:00:00</time>
      </trkpt>
      <trkpt lat="47.616567984" lon="12.905392013">
        <ele>942.4</ele>
        <time>1970-01-01T00:00:00</time>
      </trkpt>
      <trkpt lat="47.616854981" lon="12.904842999">
        <ele>934.4</ele>
        <time>1970-01-01T00:00:00</time>
      </trkpt>
      <trkpt lat="47.616765965" lon="12.903797021">
        <ele>924.8</ele>
        <time>1970-01-01T00:00:00</time>
      </trkpt>
      <trkpt lat="47.616748028" lon="12.903221017">
        <ele>920.5</ele>
        <time>1970-01-01T00:00:00</time>
      </trkpt>
      <trkpt lat="47.617340041" lon="12.902620034">
        <ele>935.4</ele>
        <time>1970-01-01T00:00:00</time>
      </trkpt>
      <trkpt lat="47.617699960" lon="12.902385006">
        <ele>939.9</ele>
        <time>1970-01-01T00:00:00</time>
      </trkpt>
      <trkpt lat="47.618148979" lon="12.903091013">
        <ele>958.6</ele>
        <time>1970-01-01T00:00:00</time>
      </trkpt>
      <trkpt lat="47.618706040" lon="12.903142981">
        <ele>970.2</ele>
        <time>1970-01-01T00:00:00</time>
      </trkpt>
      <trkpt lat="47.619263018" lon="12.902515009">
        <ele>973.2</ele>
        <time>1970-01-01T00:00:00</time>
      </trkpt>
      <trkpt lat="47.619999032" lon="12.901704982">
        <ele>984.2</ele>
        <time>1970-01-01T00:00:00</time>
      </trkpt>
      <trkpt lat="47.620287035" lon="12.901730966">
        <ele>988.6</ele>
        <time>1970-01-01T00:00:00</time>
      </trkpt>
      <trkpt lat="47.620609989" lon="12.902724976">
        <ele>1003.2</ele>
        <time>1970-01-01T00:00:00</time>
      </trkpt>
      <trkpt lat="47.622373458" lon="12.903751340">
        <ele>1019.5</ele>
        <time>1970-01-01T00:00:00</time>
      </trkpt>
    </trkseg>
  </trk>
</gpx>
